Printer-friendly version

IAU Minor Planet Center

Minor Planet Center

MPEC 2005-G33 : COMET P/2005 E1 (TUBBIOLO)

The following Minor Planet Electronic Circular may be linked-to from your own Web pages, but must not otherwise be redistributed electronically.


Read MPEC 2005-G32 Read MPEC 2005-G34


M.P.E.C. 2005-G33                                Issued 2005 Apr. 5, 20:55 UT

     The Minor Planet Electronic Circulars contain information on unusual
         minor planets and routine data on comets.  They are published
   on behalf of Commission 20 of the International Astronomical Union by the
          Minor Planet Center, Smithsonian Astrophysical Observatory,
                          Cambridge, MA 02138, U.S.A.

                  Supported in part by the Brinson Foundation
             Prepared using the Tamkin Foundation Computer Network

                              MPC@CFA.HARVARD.EDU
          URL http://cfa-www.harvard.edu/iau/mpc.html  ISSN 1523-6714

                          COMET P/2005 E1 (TUBBIOLO)

Observations:
    PK05E010  C2005 03 31.58597 11 35 19.47 +03 36 26.8          19.6 T EG033360
    PK05E010  C2005 03 31.59031 11 35 19.37 +03 36 27.0                 EG033360
    PK05E010  C2005 03 31.59525 11 35 19.22 +03 36 27.6                 EG033360
    PK05E010  C2005 04 02.86123 11 34 20.20 +03 40 33.2          19.8 N EG033A13
    PK05E010  C2005 04 02.86205 11 34 20.08 +03 40 34.5          19.2 N EG033A13
    PK05E010  C2005 04 02.87685 11 34 19.70 +03 40 35.1          19.8 N EG033A13
    PK05E010  C2005 04 02.90392 11 34 19.00 +03 40 38.4          20.0 N EG033A13
    PK05E010  C2005 04 02.95827 11 34 17.51 +03 40 43.8          20.1 T EG033215
    PK05E010  C2005 04 04.27792 11 33 44.04 +03 43 01.5          17.0 T EG033G96
    PK05E010  C2005 04 04.28421 11 33 43.96 +03 43 01.4          19.2 T EG033G96
    PK05E010  C2005 04 04.29054 11 33 43.83 +03 43 01.8          19.3 T EG033G96
    PK05E010  C2005 04 04.29685 11 33 43.65 +03 43 03.2          19.0 T EG033G96

Observer details:
215 Buchloe.  Observer W. Hasubick.  0.44-m f/4.6 reflector + CCD.
360 Kuma Kogen.  Observer A. Nakamura.  0.60-m f/5.8 Ritchey-Chretien + CCD.
A13 Observatoire Naef, Marly.  Observer P. Kocher.  0.5-m f/3.3 Hypergraph
    + CCD.
G96 Mt. Lemmon Survey.  Observer A. Grauer.  Measurers E. C. Beshore,
    C. M. Casey, E. J. Christensen, G. J. Garradd, R. E. Hill, S. M. Larson,
    R. H. McNaught.  1.5-m reflector + CCD.

Orbital elements:
    P/2005 E1 (Tubbiolo)
T 2005 Mar.  9.8026 TT                                  MPC
q   4.437894             (2000.0)            P               Q
n   0.0506390      Peri.  169.7108      -0.9947567      -0.1020338
a   7.235680       Node     4.4506      +0.0863224      -0.8741025
e   0.386665       Incl.    5.1323      +0.0548409      -0.4749041
P  19.5
From 46 observations 2005 Mar. 3-Apr. 4.

Ephemeris:
    P/2005 E1 (Tubbiolo)
Date    TT    R. A. (2000) Decl.     Delta      r     Elong.  Phase   m1    m2
2005 03 31    11 35.58   +03 35.4    3.476    4.439   162.6     3.8  19.2
2005 04 10    11 31.49   +03 51.8    3.533    4.441   151.8     6.1  19.2
2005 04 20    11 28.35   +04 02.0    3.615    4.443   141.2     8.1  19.3
2005 04 30    11 26.40   +04 05.0    3.719    4.445   131.0     9.8  19.3
2005 05 10    11 25.74   +04 00.0    3.841    4.449   121.2    11.2  19.4
2005 05 20    11 26.43   +03 46.9    3.977    4.453   111.8    12.2  19.5
2005 05 30    11 28.42   +03 26.0    4.122    4.457   102.8    12.8  19.6

Brian G. Marsden             (C) Copyright 2005 MPC           M.P.E.C. 2005-G33

Read MPEC 2005-G32 Read MPEC 2005-G34


Our Web policy. Index to the CBAT/MPC/ICQ pages.


Valid HTML 4.01!